Temp
74 74 73 74 75 75 76 76 75 75 75 75 76 75 74 72 67 66 68 70 74 78 76 77 76 76 77 76 76 76 76 76 76
72 72 72 72 73 74 74 75 75 75 74 75 76 75 73 70 66 66 67 68 76 78 76 76 76 76 76 76 76 76 76 76 76
70 70 70 71 71 72 73 73 74 75 75 75 74 73 71 69 67 67 67 70 76 78 76 75 77 77 76 76 76 76 76 76 75
68 67 68 70 70 70 71 71 73 73 74 74 73 71 70 67 66 70 68 71 77 76 75 75 76 76 76 76 76 75 75 75 75
65 65 66 68 69 69 70 71 71 71 72 72 72 70 68 66 66 68 69 74 77 76 74 73 74 75 76 75 75 75 75 74 74
59 61 64 66 67 68 68 69 69 68 67 70 70 69 68 66 66 68 70 74 77 75 74 75 74 73 75 75 74 74 74 74 74
57 57 61 62 63 64 66 66 66 65 64 65 66 66 66 65 66 68 70 74 78 77 75 75 75 75 74 74 74 73 73 74 73
53 53 53 54 58 56 58 59 61 62 62 63 64 65 65 64 64 67 70 73 78 77 76 75 74 74 74 74 74 73 73 73 72
51 51 52 52 53 52 53 55 58 59 62 62 63 64 64 65 64 65 67 72 76 76 76 75 74 74 74 74 73 73 72 72 72
48 50 50 51 52 51 51 53 55 57 58 60 61 62 63 64 64 64 64 67 69 72 72 73 74 74 73 73 73 72 72 72 72
48 48 49 50 50 50 51 51 53 54 56 57 59 61 61 61 64 64 64 65 66 67 69 72 72 74 74 73 73 72 72 72 71
46 47 48 49 50 49 50 51 51 51 53 54 57 59 60 61 62 64 64 64 63 65 67 68 70 72 73 73 73 72 72 72 71
46 47 48 49 49 49 48 49 49 49 49 51 53 56 58 60 61 62 63 63 63 62 64 65 67 70 72 73 73 73 72 71 71
46 47 47 49 50 50 48 49 48 48 48 50 52 54 56 58 61 59 60 61 62 62 63 64 64 65 68 70 71 73 72 71 70
46 46 45 47 48 48 49 48 50 48 47 49 50 51 55 56 58 59 60 59 60 60 61 62 62 64 68 67 70 70 72 71 70
45 44 44 45 46 46 48 48 46 47 48 46 47 49 53 55 56 58 58 59 60 60 62 61 61 62 65 66 68 70 67 69 69
46 43 43 42 43 44 46 45 44 46 48 43 43 44 49 52 54 55 58 58 59 60 61 61 61 62 62 63 65 68 70 69 68
42 43 42 42 41 41 42 44 43 41 45 45 43 43 43 46 52 55 56 56 57 58 59 60 60 61 61 62 63 65 68 69 69
41 41 42 41 40 39 39 45 41 42 40 44 48 46 45 44 43 51 53 53 55 56 56 57 58 59 60 59 59 61 63 69 68
40 40 40 40 40 39 38 38 38 40 39 40 42 42 44 46 44 44 49 53 53 53 54 55 56 58 58 59 59 59 62 68 68
MSLP
1016.88 1016.76 1016.49 1016.15 1015.84 1015.61 1015.44 1015.31 1015.26 1015.19 1015.13 1015.02 1014.90 1014.74 1014.85 1014.90 1015.05 1015.23 1015.15 1014.85 1014.67 1014.68 1014.79 1014.84 1015.03 1015.31 1015.44 1015.55 1015.83 1015.99 1016.23 1016.53 1016.77
1017.22 1016.96 1016.77 1016.46 1016.24 1015.91 1015.50 1015.17 1014.96 1014.81 1014.86 1014.90 1014.78 1014.65 1014.54 1014.58 1014.81 1015.02 1014.95 1014.66 1014.30 1014.38 1014.73 1014.70 1014.95 1015.24 1015.39 1015.60 1015.91 1016.04 1016.31 1016.56 1016.85
1017.66 1017.36 1017.09 1016.70 1016.38 1015.93 1015.76 1015.42 1014.98 1014.63 1014.45 1014.42 1014.46 1014.39 1014.36 1014.39 1014.39 1014.66 1014.65 1014.43 1014.09 1014.18 1014.54 1014.78 1014.84 1015.06 1015.37 1015.55 1015.87 1016.08 1016.28 1016.62 1016.95
1018.19 1017.76 1017.32 1016.87 1016.52 1016.12 1015.79 1015.37 1015.16 1014.76 1014.36 1014.10 1013.97 1014.09 1014.03 1014.12 1014.16 1014.17 1014.24 1014.08 1013.80 1014.17 1014.54 1014.74 1014.73 1015.06 1015.37 1015.52 1015.80 1015.95 1016.22 1016.40 1016.79
1018.69 1018.25 1017.86 1017.29 1016.79 1016.13 1015.77 1015.38 1014.99 1014.79 1014.41 1014.06 1013.66 1013.61 1013.77 1013.77 1013.87 1013.89 1013.84 1013.75 1013.59 1013.97 1014.48 1014.74 1014.86 1015.07 1015.22 1015.46 1015.69 1015.94 1016.06 1016.37 1016.65
1018.98 1018.61 1018.14 1017.63 1017.08 1016.53 1015.96 1015.42 1015.02 1014.91 1014.41 1013.90 1013.70 1013.28 1013.40 1013.35 1013.51 1013.63 1013.61 1013.28 1013.26 1013.57 1013.94 1014.19 1014.62 1014.85 1014.97 1015.12 1015.42 1015.76 1016.07 1016.31 1016.58
1019.47 1018.92 1018.43 1018.04 1017.54 1017.02 1016.38 1015.60 1015.08 1014.73 1014.42 1014.01 1013.64 1013.33 1013.11 1013.08 1013.04 1013.34 1013.17 1012.94 1012.71 1013.11 1013.46 1013.70 1013.91 1014.35 1014.61 1014.86 1015.06 1015.47 1015.87 1016.11 1016.48
1019.88 1019.39 1018.95 1018.50 1018.00 1017.69 1016.99 1016.34 1015.49 1014.77 1014.54 1013.98 1013.63 1013.46 1012.94 1013.07 1013.02 1012.89 1012.70 1012.47 1012.28 1012.62 1013.00 1013.34 1013.54 1013.85 1014.12 1014.39 1014.73 1015.11 1015.55 1015.92 1016.34
1020.50 1020.04 1019.54 1018.97 1018.47 1017.94 1017.51 1016.82 1015.97 1015.10 1014.37 1013.93 1013.48 1013.38 1012.76 1012.81 1012.77 1012.81 1012.46 1011.90 1011.95 1012.21 1012.42 1012.87 1013.17 1013.33 1013.58 1013.89 1014.31 1014.90 1015.24 1015.70 1016.21
1020.92 1020.44 1020.01 1019.39 1018.72 1018.22 1017.70 1017.06 1016.42 1015.54 1014.76 1014.09 1013.44 1013.20 1012.97 1012.34 1011.79 1012.03 1012.33 1011.90 1011.97 1012.02 1012.34 1012.66 1012.82 1012.99 1013.07 1013.44 1013.83 1014.52 1014.94 1015.27 1015.95
1021.24 1020.64 1020.17 1019.72 1019.22 1018.56 1018.11 1017.33 1016.65 1016.08 1015.15 1014.32 1013.46 1012.85 1012.30 1011.79 1011.24 1011.15 1011.41 1011.87 1011.85 1012.12 1012.24 1012.37 1012.50 1012.40 1012.46 1012.90 1013.29 1013.88 1014.42 1014.88 1015.50
1021.27 1020.94 1020.35 1019.87 1019.31 1018.66 1018.07 1017.35 1016.67 1016.13 1015.45 1014.56 1013.79 1012.70 1012.05 1011.81 1010.98 1010.40 1010.70 1010.84 1011.36 1011.93 1012.21 1012.30 1012.20 1011.96 1012.02 1012.26 1012.82 1013.28 1013.87 1014.44 1015.07
1021.24 1020.88 1020.42 1019.84 1019.36 1018.67 1018.26 1017.73 1016.97 1016.42 1015.72 1014.66 1013.85 1012.85 1012.19 1011.49 1011.06 1010.79 1010.28 1010.68 1010.75 1010.98 1011.63 1011.93 1011.97 1011.43 1011.61 1011.59 1012.00 1012.48 1013.18 1013.83 1014.62
1021.23 1020.92 1020.46 1019.78 1019.28 1018.71 1018.30 1017.86 1017.30 1016.63 1015.80 1014.78 1013.67 1012.80 1012.01 1011.35 1010.94 1010.84 1010.81 1010.07 1010.75 1011.24 1011.30 1011.63 1011.50 1011.47 1011.41 1011.04 1009.96 1011.38 1012.07 1013.01 1013.95
1021.14 1020.80 1020.40 1019.91 1019.42 1018.93 1018.41 1017.95 1017.21 1016.92 1016.07 1014.82 1013.47 1012.35 1011.62 1010.88 1010.46 1010.30 1010.04 1010.26 1010.47 1010.82 1010.84 1010.83 1010.84 1010.92 1011.03 1010.79 1010.74 1009.82 1010.59 1011.79 1012.96
1021.08 1020.62 1020.31 1019.94 1019.58 1019.05 1018.51 1017.87 1017.21 1016.78 1016.03 1015.00 1013.75 1012.14 1010.83 1010.33 1010.04 1009.78 1009.88 1010.01 1010.04 1010.20 1010.20 1010.30 1010.21 1010.52 1010.66 1010.66 1010.50 1010.24 1010.12 1010.58 1012.55
1021.04 1020.73 1020.37 1019.99 1019.57 1019.07 1018.54 1018.02 1017.52 1017.03 1016.43 1016.05 1014.66 1012.74 1010.95 1010.30 1009.63 1009.66 1009.62 1009.60 1009.53 1009.68 1009.69 1009.55 1009.76 1010.16 1010.24 1010.40 1010.65 1010.69 1011.00 1011.55 1012.15
1021.12 1020.63 1020.35 1019.91 1019.59 1019.16 1018.66 1018.16 1017.78 1017.18 1016.68 1016.22 1015.89 1014.12 1012.61 1011.95 1010.00 1009.48 1009.46 1009.52 1009.58 1009.48 1009.49 1009.53 1009.54 1009.88 1009.86 1009.91 1010.32 1010.54 1010.69 1011.07 1011.56
1021.10 1020.56 1020.18 1019.82 1019.48 1019.08 1018.64 1018.15 1017.89 1017.50 1016.99 1016.26 1015.54 1015.21 1014.87 1013.36 1011.77 1010.28 1009.82 1009.66 1009.50 1009.29 1009.22 1009.26 1009.33 1009.58 1009.36 1009.48 1009.69 1009.95 1010.12 1010.65 1011.10
1020.93 1020.41 1019.98 1019.62 1019.23 1018.89 1018.50 1018.15 1017.88 1017.55 1017.18 1016.67 1015.79 1015.24 1014.55 1013.96 1013.20 1011.59 1010.48 1010.01 1009.72 1009.42 1009.32 1009.44 1009.38 1009.12 1009.17 1009.32 1009.59 1009.78 1009.88 1010.23 1010.56
Wind_Speed
14 15 13 11 11 11 11 10 11 10 9 10 10 10 9 7 4 5 7 7 12 14 15 14 15 15 18 17 16 15 15 16 15
18 18 17 16 16 16 14 13 13 11 11 12 13 11 10 6 5 5 6 6 13 14 14 15 16 16 15 16 16 15 16 16 16
16 16 15 17 19 16 17 18 16 13 13 14 14 12 11 6 6 5 5 9 12 15 15 16 17 17 16 16 16 16 16 15 15
16 15 16 16 16 17 18 18 19 18 15 13 13 13 11 6 4 5 4 11 14 15 14 15 16 15 15 15 15 15 15 16 17
19 19 18 18 17 17 17 18 18 19 18 14 12 12 12 6 5 4 5 13 14 17 14 11 10 13 16 15 15 15 16 16 18
11 16 19 20 18 18 17 17 18 19 17 14 13 9 4 5 4 4 10 16 18 19 20 20 19 20 18 17 15 15 16 17 17
11 13 19 20 19 19 20 18 16 11 7 6 9 4 5 5 5 5 12 19 19 20 21 20 20 20 19 18 17 17 18 17 17
7 6 6 7 13 7 11 10 7 8 6 6 6 6 4 4 4 7 12 20 21 20 20 20 20 20 20 20 18 19 18 18 16
8 6 8 7 6 8 8 7 10 9 6 6 6 8 7 6 4 6 12 17 20 18 15 19 20 20 21 22 21 19 19 18 17
6 7 7 7 8 8 8 8 8 9 8 7 5 6 8 11 7 5 12 8 7 9 9 10 14 19 22 23 23 22 20 18 18
6 7 7 7 8 7 7 7 8 9 8 9 9 8 7 9 10 7 8 12 7 5 3 8 9 14 22 23 25 22 21 20 20
5 6 7 7 7 8 7 9 8 8 9 9 9 8 8 8 10 7 6 8 12 8 10 11 13 11 20 25 26 24 21 20 23
5 6 7 7 7 6 6 7 8 7 8 9 9 7 7 8 6 6 7 4 5 5 15 17 16 10 17 24 29 27 23 21 23
5 6 7 9 7 7 6 7 7 8 8 10 10 9 8 7 5 6 4 4 7 7 10 19 16 16 9 17 19 30 27 24 24
8 7 6 8 7 7 8 8 7 7 8 10 11 9 8 6 6 6 5 5 7 6 8 6 10 19 16 13 19 26 31 29 27
9 6 6 5 7 9 9 8 9 7 7 6 8 9 10 8 6 5 5 7 7 6 7 5 3 6 16 17 21 20 7 26 25
9 8 7 5 6 8 9 8 7 6 5 5 7 5 5 4 4 3 5 6 6 6 7 5 5 6 6 11 18 20 18 22 27
7 8 7 7 5 5 6 7 7 7 7 4 3 5 4 10 3 2 2 3 4 5 5 6 6 6 6 7 13 24 25 25 28
7 7 8 7 6 6 4 7 5 6 7 7 2 5 5 4 6 3 3 3 4 4 4 6 5 5 4 6 7 10 15 21 23
8 7 8 8 5 5 6 5 5 4 5 6 7 5 5 6 6 7 6 3 3 4 2 4 4 4 4 3 5 8 11 22 29
Wind_Direction
360 354 339 321 304 292 285 275 275 276 270 253 241 231 231 235 237 255 259 245 217 214 214 189 177 169 160 154 144 142 134 130 130
3 359 359 352 337 318 293 280 275 268 262 256 248 239 229 221 220 251 262 234 223 196 184 174 164 161 156 149 150 150 146 144 143
359 359 352 344 343 338 324 307 283 275 270 254 249 241 233 231 210 229 245 236 219 186 171 162 160 161 160 158 160 161 159 159 155
5 3 358 348 341 334 333 330 307 286 274 262 243 239 232 222 224 217 228 233 209 187 181 177 169 172 174 174 174 171 174 172 167
360 359 354 355 347 349 330 328 327 322 292 273 251 237 238 219 220 236 213 205 183 176 175 181 185 188 181 182 182 186 183 174 169
1 355 357 356 351 351 345 339 337 327 319 285 270 250 231 205 212 239 224 197 184 180 184 200 196 202 197 188 190 195 181 176 181
358 352 355 356 357 349 345 341 338 336 326 314 289 266 236 224 208 224 239 211 198 193 194 197 201 204 199 194 194 191 186 183 182
357 348 347 346 350 345 339 330 326 322 311 316 300 282 285 257 236 223 235 218 212 206 202 201 204 208 203 196 193 192 189 181 182
354 350 341 344 341 339 336 327 317 318 310 303 317 304 261 252 234 244 248 202 220 214 211 206 214 213 207 200 195 190 183 181 185
343 345 338 339 339 337 334 333 324 320 314 302 282 281 292 257 235 225 239 218 199 200 212 233 223 227 214 204 192 187 184 186 194
346 340 338 333 335 328 324 326 334 324 320 315 305 287 283 305 260 202 204 224 213 224 240 250 246 247 218 202 190 184 185 191 193
332 334 331 324 326 323 326 330 332 327 323 315 310 308 296 282 310 243 233 213 207 223 262 264 274 256 220 201 193 186 191 190 184
340 338 329 317 317 320 324 326 327 323 318 315 307 298 289 282 274 261 199 222 199 210 256 246 243 273 224 213 197 188 187 188 187
342 331 322 327 321 322 320 324 320 320 318 312 306 294 283 269 265 236 259 177 197 207 228 236 225 249 249 239 218 191 185 184 183
332 324 317 325 321 320 321 318 323 308 303 309 296 290 275 256 249 239 223 229 220 216 217 240 219 225 235 254 257 214 185 182 181
329 315 318 318 326 319 313 318 322 320 320 314 323 291 275 257 235 227 217 221 227 227 226 210 207 218 215 222 260 266 184 185 185
325 325 316 310 319 324 328 327 321 319 346 315 287 307 323 360 271 226 222 220 224 226 235 235 214 216 210 216 228 247 230 204 202
314 318 316 316 310 313 318 321 334 320 317 281 290 311 326 344 314 332 257 242 223 220 220 227 217 218 209 202 214 224 219 215 208
304 308 311 311 306 301 300 320 315 328 319 320 282 295 318 312 318 330 332 299 250 234 242 239 220 224 209 193 214 231 220 209 187
300 303 306 306 301 292 295 305 304 298 299 300 303 291 288 275 263 293 308 328 265 268 237 244 237 225 217 211 221 222 214 209 200